Wind_Speed
7 6 5 3 3 2 3 5 6 6 6 6 7 9 10 11 11 10 8 6 6 8 9 9 9 5 3 7 3 14 14 11 7 3 5 2 3 4 5 4 3 4 2 4 4 7 6
7 7 6 5 4 2 2 3 4 5 5 5 6 6 7 9 10 8 7 7 7 7 8 8 9 4 3 5 6 14 11 10 11 9 6 6 3 5 6 4 3 2 5 5 2 3 3
8 8 8 7 6 4 2 2 3 3 4 4 4 4 5 6 6 4 4 8 7 7 7 7 7 5 10 4 6 13 8 11 11 9 3 4 4 5 5 5 5 5 4 2 1 1 2
9 8 9 8 7 5 3 2 1 2 3 3 2 3 4 4 4 2 4 6 7 8 5 5 6 4 4 5 4 14 9 6 9 8 12 14 14 9 4 5 4 3 4 2 0 2 1
11 10 9 9 8 7 5 3 1 1 2 2 2 3 3 3 2 1 4 4 8 3 5 4 4 5 3 3 5 14 11 5 5 6 8 6 7 5 2 4 3 6 1 2 3 1 1
12 11 10 9 10 9 7 6 3 1 1 2 2 3 3 2 1 2 4 3 9 3 3 3 8 3 6 4 7 12 7 7 5 2 4 7 5 4 3 3 2 1 1 1 3 1 0
14 13 12 11 11 10 9 7 5 3 0 1 3 3 3 2 0 2 3 3 3 5 15 4 1 3 2 9 3 11 12 5 4 8 4 5 5 3 2 2 3 5 3 2 3 1 2
16 15 14 12 11 12 11 9 7 4 2 1 3 4 3 3 2 2 3 5 3 5 7 6 3 3 2 6 4 14 14 4 5 3 2 5 3 2 2 3 3 2 2 4 3 1 2
18 17 16 15 13 12 12 10 8 6 3 2 4 3 1 3 3 5 9 8 6 5 5 4 2 3 4 5 3 7 8 2 5 4 5 4 2 3 1 2 2 1 1 1 3 5 0
21 20 18 17 16 14 13 12 10 8 5 4 3 2 2 4 3 4 4 6 4 2 4 5 3 4 2 1 5 3 5 2 6 3 3 5 2 2 3 3 2 2 1 1 1 3 3
25 23 22 20 18 16 15 14 12 9 7 6 4 2 2 5 7 4 5 5 2 1 3 2 3 2 3 5 0 7 4 4 4 3 1 0 2 3 4 1 2 1 1 1 2 3 3
31 28 26 23 21 18 16 15 14 11 8 6 5 5 6 6 5 7 7 5 2 4 4 1 2 4 2 5 3 5 4 7 3 3 5 3 1 3 2 1 2 2 1 3 3 2 2
34 32 29 26 24 21 18 17 15 13 10 7 5 6 5 4 5 8 7 3 4 3 2 1 1 3 3 4 4 5 4 4 3 3 3 2 3 2 2 1 1 1 3 3 4 3 3
36 35 32 29 27 25 22 19 16 15 11 8 6 7 6 7 9 9 4 4 2 2 2 0 1 1 3 3 2 4 2 3 5 4 3 3 2 1 4 1 2 2 2 4 4 2 4
34 35 34 33 32 29 26 23 20 17 14 9 6 7 5 6 7 7 4 3 4 4 5 7 1 2 1 1 0 1 3 2 2 1 5 3 2 0 2 2 2 0 1 3 5 1 1
39 39 38 37 37 33 31 27 25 23 19 12 5 4 3 4 7 3 4 3 4 1 5 3 3 0 3 1 1 2 2 1 1 0 0 3 3 0 0 2 3 2 2 3 2 2 5
40 40 42 41 41 36 35 32 29 27 25 17 5 2 1 4 6 4 3 5 3 1 1 3 4 4 2 3 2 1 2 1 0 2 3 4 3 1 0 5 6 2 1 3 3 3 4
31 39 43 44 44 39 36 34 33 31 32 22 5 3 2 8 3 1 4 5 3 3 1 2 2 3 5 5 3 3 4 2 0 2 4 1 4 2 5 1 2 1 5 5 4 5 1
30 37 45 48 49 42 36 40 39 39 40 17 5 2 1 3 4 3 2 3 2 3 3 3 2 1 1 6 2 3 4 1 1 4 5 5 1 2 5 4 4 3 4 4 4 2 7
27 28 31 48 46 43 37 43 43 43 40 16 3 3 2 2 1 6 6 4 4 2 3 3 3 2 3 2 3 4 4 1 2 1 4 1 2 6 6 5 5 3 4 5 4 3 6
22 16 16 27 33 33 36 48 44 40 41 11 1 2 1 4 4 5 4 6 5 5 1 2 2 3 5 3 1 3 2 2 3 3 3 2 4 1 5 5 4 7 6 9 13 15 9
24 19 16 14 17 17 25 49 45 43 40 4 4 4 3 2 3 6 1 5 8 3 6 3 4 2 3 4 4 6 6 3 5 2 2 2 3 2 4 6 3 5 12 18 19 18 16
19 23 21 18 17 11 13 45 44 42 35 5 3 4 4 1 2 4 5 6 8 10 1 2 6 5 3 1 3 4 4 4 3 6 5 4 4 2 6 3 6 8 10 14 5 3 12
14 16 17 17 15 17 23 39 43 43 27 7 7 5 4 2 3 3 5 2 5 4 6 2 3 3 3 8 7 5 7 7 7 5 4 5 4 2 4 5 4 4 2 1 8 5 12
15 15 16 16 18 19 22 38 36 39 27 7 8 4 3 3 2 3 6 5 7 4 4 4 3 3 11 3 1 3 3 4 4 6 4 4 2 1 2 3 9 5 1 5 6 7 6
12 13 14 16 19 21 25 35 33 42 29 7 9 10 5 6 5 5 5 4 4 3 3 3 3 2 1 1 1 2 4 3 3 4 4 2 3 2 2 3 6 5 3 3 2 6 3
14 14 13 15 19 24 27 39 31 37 27 14 7 10 6 4 1 1 3 5 6 4 3 3 4 1 2 2 2 4 4 2 3 6 5 3 1 9 7 5 9 4 3 3 5 5 1
14 13 13 11 15 24 28 35 39 37 24 17 9 7 5 3 2 6 5 4 3 2 4 4 4 1 2 3 3 3 3 4 1 3 6 8 8 4 3 4 11 6 3 6 2 1 2
15 14 15 15 13 20 26 35 40 27 29 14 8 13 15 13 4 6 10 9 6 3 5 2 2 4 5 3 0 3 2 1 3 4 2 3 6 5 11 7 1 2 2 1 2 2 2
Wind_Direction
200 202 192 178 149 122 83 67 67 67 78 87 91 103 112 116 114 110 94 57 36 23 17 15 17 27 72 51 29 351 3 17 39 52 58 65 67 113 106 107 81 76 126 63 97 85 88
208 206 200 190 182 166 114 80 73 72 77 86 100 109 125 127 125 109 76 35 16 11 9 13 18 42 83 76 350 355 4 35 43 51 44 40 116 97 92 66 57 99 96 123 56 98 121
216 211 207 200 199 185 170 103 81 79 81 88 107 126 136 151 148 121 32 10 11 359 1 13 21 72 60 152 19 12 22 36 37 51 71 62 119 71 137 98 161 146 82 114 34 61 66
220 217 213 208 205 198 195 158 95 73 75 77 114 139 160 172 198 248 343 359 9 1 12 8 23 71 87 12 27 29 38 44 50 66 83 93 87 91 61 116 50 70 69 53 233 169 26
223 221 219 215 208 206 201 194 183 60 65 67 106 148 160 167 178 291 338 4 355 46 37 27 31 80 83 8 24 6 14 5 16 64 72 84 70 86 73 80 44 20 54 12 337 57 92
229 225 224 219 216 211 206 201 199 200 62 46 105 140 152 168 222 316 337 341 60 42 22 43 46 55 15 323 331 348 3 20 35 360 30 41 51 75 43 67 234 187 75 283 274 344 265
234 231 227 222 218 216 213 211 202 202 196 84 130 133 137 146 168 341 351 105 19 355 37 85 302 114 323 332 16 7 359 352 29 49 55 7 69 64 3 84 119 118 128 230 239 49 256
234 234 231 228 220 217 216 214 210 202 201 175 162 138 135 141 74 8 52 81 104 139 80 34 53 53 21 345 17 351 7 65 50 82 354 32 74 306 111 97 111 116 126 254 271 150 202
234 233 233 229 223 219 217 215 216 207 197 186 172 179 159 150 123 67 90 114 114 124 83 6 37 39 321 20 70 331 13 27 64 62 28 103 78 337 81 49 72 14 246 312 292 326 272
235 235 232 231 224 216 216 213 216 214 201 182 168 172 182 165 143 114 80 129 125 145 82 341 335 355 351 75 47 327 20 88 35 107 78 76 329 79 67 79 23 274 320 162 317 34 280
230 235 233 230 228 220 212 210 208 214 205 196 198 178 114 175 138 102 136 147 142 102 7 14 341 323 22 83 138 356 3 26 86 104 113 145 46 44 70 46 331 176 6 72 77 102 36
225 229 232 230 227 222 216 213 206 203 205 200 191 178 141 131 111 127 138 140 120 45 258 73 307 351 41 17 26 321 36 52 140 89 47 97 74 56 115 67 44 141 123 60 63 91 19
228 226 231 228 225 221 215 211 203 196 201 192 182 175 174 150 138 140 137 92 30 146 17 102 55 35 87 8 37 28 26 29 81 70 26 74 15 12 40 105 22 29 40 329 347 6 253
235 229 228 230 225 219 214 208 202 191 191 187 167 152 137 129 138 142 130 61 208 119 208 128 118 87 95 356 44 6 79 61 31 67 94 117 319 356 338 88 155 69 135 146 247 269 282
239 237 229 229 224 220 213 203 199 190 179 187 191 147 124 121 145 155 83 82 208 186 148 148 59 106 56 90 97 89 52 129 171 124 138 126 245 25 27 15 18 80 97 161 93 122 355
241 241 235 226 225 219 214 207 202 195 174 178 191 156 110 137 146 143 84 215 184 150 127 144 171 299 160 233 149 68 171 293 143 337 210 216 13 176 350 129 17 136 174 77 24 335 295
244 241 241 225 225 222 217 215 206 189 167 173 208 119 168 141 135 54 172 198 158 138 147 154 168 133 148 182 197 144 123 288 126 119 104 137 101 242 35 202 176 132 10 36 113 141 200
249 241 236 227 221 222 219 214 205 182 164 163 185 174 132 152 74 18 164 171 127 168 118 121 109 111 156 170 168 185 182 181 210 142 133 33 139 213 234 32 352 144 187 153 138 244 200
246 244 237 227 222 218 221 209 199 182 171 149 144 112 38 143 152 183 191 111 138 137 178 152 131 96 143 168 104 194 166 60 173 160 167 191 258 350 322 15 3 196 219 138 115 88 205
241 237 233 220 222 218 217 200 197 189 174 149 133 120 23 69 82 145 149 174 151 43 103 86 132 96 93 115 16 193 186 84 24 63 94 126 122 190 210 209 120 162 216 207 156 160 247
218 237 227 217 211 214 218 199 206 198 175 161 108 168 156 185 218 166 152 136 136 175 66 150 30 198 162 132 98 214 136 141 46 354 49 103 222 163 282 229 174 200 194 207 209 220 218
213 215 223 207 191 195 200 193 196 189 167 126 133 135 49 48 68 111 314 202 151 174 140 213 167 167 161 158 185 198 142 193 205 42 116 360 243 107 284 298 179 235 223 230 231 239 250
202 211 211 214 221 218 199 186 193 186 167 133 152 121 103 139 103 116 200 179 194 137 146 88 152 125 141 157 120 115 91 73 133 155 178 143 131 52 269 324 315 286 226 197 193 220 215
221 213 211 202 199 192 192 195 197 188 178 129 166 139 109 147 131 203 141 122 154 175 138 76 65 116 133 109 108 80 59 56 54 39 21 145 142 179 275 349 303 264 357 122 215 224 227
199 203 207 193 192 196 192 196 204 197 176 146 159 196 115 113 145 123 131 101 84 67 84 91 36 356 147 154 87 3 339 15 12 27 10 15 135 246 236 219 305 307 260 156 168 276 228
183 197 205 194 197 191 190 200 205 192 182 160 131 92 91 119 217 133 131 158 134 122 98 72 17 344 233 103 131 228 239 225 298 9 14 73 54 146 101 195 242 241 249 184 152 289 190
186 199 207 210 207 194 192 196 198 174 185 179 131 120 98 107 335 18 147 157 116 94 101 139 171 166 336 141 158 198 238 158 233 178 173 121 182 217 214 250 280 231 174 144 92 258 104
186 189 187 180 204 195 188 191 173 172 164 164 133 123 116 95 47 16 7 130 103 142 155 160 102 310 76 178 171 214 154 220 123 182 183 169 160 195 167 219 270 148 99 179 186 46 148
179 178 172 171 171 179 177 181 176 186 174 142 107 107 99 75 101 93 82 60 50 87 124 183 157 156 170 104 116 96 194 124 173 251 326 246 195 183 191 216 218 177 73 146 175 143 194
Height
824 825 826 826 827 828 828 827 827 827 827 826 826 826 825 825 826 826 826 826 825 824 823 822 820 819 819 826 834 830 827 825 823 822 822 821 824 830 839 846 848 852 861 865 868 868 872
823 824 824 825 826 827 828 827 827 828 827 827 826 827 827 827 826 827 827 826 825 824 823 822 820 819 819 832 833 831 828 826 824 823 823 822 825 829 842 851 850 859 863 866 867 869 870
822 822 823 824 826 826 827 827 827 828 827 827 827 827 828 828 828 827 827 826 825 824 823 822 821 819 824 836 833 831 829 827 826 824 825 826 826 829 842 853 858 859 861 866 868 868 871
820 822 822 823 825 826 827 827 828 828 827 827 827 827 828 828 828 828 827 826 825 824 823 822 821 820 834 834 833 830 829 828 828 827 826 828 828 834 844 853 857 858 861 856 867 868 874
819 820 821 823 824 825 826 827 828 828 827 827 827 827 828 828 828 828 827 826 825 823 823 822 822 821 835 834 833 833 831 830 829 829 829 829 830 844 850 854 858 868 857 864 862 870 872
818 819 820 821 822 824 825 826 827 827 827 827 827 827 827 828 828 827 826 825 825 824 824 823 824 829 837 842 837 835 833 832 831 830 832 834 843 852 859 855 852 855 860 868 869 871 873
816 817 819 820 821 823 824 825 825 826 827 826 826 826 827 827 827 827 826 826 829 829 831 842 844 843 843 841 838 837 835 834 833 838 847 848 850 857 861 860 863 868 865 866 866 871 872
813 815 817 818 819 820 822 824 825 825 826 826 826 826 827 827 827 826 826 827 831 834 846 844 844 844 844 843 841 839 837 839 841 850 849 853 859 868 866 864 863 863 867 869 869 873 874
810 812 814 816 817 818 820 822 824 824 825 825 825 827 827 827 827 827 827 831 831 832 842 847 847 847 847 845 851 849 844 846 850 853 860 855 868 868 864 867 865 869 870 873 873 878 879
806 809 811 813 814 815 818 819 822 824 824 825 826 826 826 827 830 829 830 832 832 833 846 848 847 849 848 847 851 849 848 850 855 860 866 872 871 867 869 871 875 865 881 877 878 881 870
800 805 808 810 813 813 814 816 819 823 824 824 825 825 825 827 826 829 833 833 833 834 850 854 851 849 848 849 853 851 850 849 857 862 863 870 872 871 870 879 880 874 881 882 883 890 893
795 799 803 806 809 811 813 814 816 819 822 823 824 825 825 826 827 829 831 833 835 839 850 847 852 852 849 855 855 855 852 852 861 863 870 877 878 880 881 884 882 883 883 890 899 899 899
789 793 798 802 805 808 810 813 814 816 821 822 823 824 825 825 827 828 830 834 842 842 849 848 850 853 855 861 858 861 859 863 861 861 862 876 883 883 883 879 881 880 884 874 869 874 862
781 786 791 796 800 804 807 810 812 813 818 822 823 823 823 824 826 828 830 836 837 838 843 855 853 854 853 863 864 862 861 867 869 869 881 879 867 887 886 884 881 885 882 889 886 873 877
775 779 784 789 794 799 803 805 809 812 814 821 825 823 824 825 827 828 833 844 835 837 843 852 856 847 853 859 860 859 865 870 871 871 878 888 864 889 888 889 888 889 885 895 920 926 914
768 771 777 781 786 793 797 800 804 807 812 820 824 823 824 825 826 829 837 834 839 841 845 845 837 848 847 854 855 855 859 871 870 874 876 888 883 891 888 889 892 888 894 894 908 898 885
760 764 769 773 779 784 789 794 797 802 809 819 824 824 824 824 826 833 837 839 841 845 843 841 843 851 850 854 858 860 863 875 873 874 874 883 887 887 892 893 889 900 911 915 914 916 903
754 757 761 765 769 777 782 787 791 797 806 816 819 821 823 822 834 845 844 837 839 845 844 845 845 845 852 862 859 861 858 864 877 873 882 885 909 898 879 904 901 896 907 912 899 904 938
747 749 752 755 760 767 774 779 784 791 797 808 815 822 822 821 833 840 841 839 840 845 845 847 849 848 854 859 870 863 863 876 875 873 879 886 899 900 881 904 906 904 909 918 929 934 919
742 744 744 746 751 760 766 772 776 781 791 800 809 816 824 824 829 829 836 837 841 846 848 848 854 854 861 863 874 880 869 878 878 877 875 879 907 879 870 870 899 907 899 900 897 913 884
738 741 741 744 746 752 757 762 769 776 785 794 800 806 812 827 824 824 822 833 837 842 848 851 855 855 865 866 866 865 871 879 881 883 887 887 894 912 906 907 903 895 888 893 889 869 876
733 736 740 742 745 749 752 756 763 771 783 788 797 805 816 825 823 825 827 829 829 844 847 849 858 861 863 856 858 863 881 890 879 888 897 905 900 923 914 899 904 908 891 877 872 867 863
730 735 739 740 743 747 754 758 761 769 780 785 793 795 796 824 829 825 826 829 829 834 847 844 847 856 861 861 870 878 883 888 878 885 898 899 911 910 893 921 918 878 869 864 871 879 857
732 734 737 739 744 750 753 759 763 768 775 777 784 787 796 820 824 824 826 826 829 834 842 853 851 848 871 873 878 882 890 895 894 893 890 893 889 889 907 915 886 846 888 875 860 871 862
730 734 737 736 742 749 752 756 762 767 773 777 781 784 790 813 819 821 825 834 837 845 851 855 867 868 868 872 868 882 887 895 909 909 901 902 889 892 910 943 873 844 875 874 865 848 862
723 732 737 737 742 746 750 755 759 767 771 776 781 779 786 806 814 814 820 829 833 845 857 869 871 870 869 866 863 865 877 883 889 911 910 903 900 893 927 917 889 856 873 888 885 856 876
725 733 734 737 739 743 748 752 759 765 771 777 780 781 787 806 825 820 817 821 830 845 858 872 872 872 869 865 862 867 865 905 879 893 914 908 905 886 886 884 877 866 878 888 869 847 877
725 729 732 732 736 739 746 753 758 764 771 775 782 784 786 808 824 826 828 826 832 836 837 866 867 871 870 864 865 880 899 893 901 901 897 889 889 903 887 888 878 869 878 855 867 879 878
725 728 729 731 734 739 744 752 758 762 769 773 779 784 787 797 827 832 833 830 829 832 839 856 849 856 855 868 883 888 886 907 896 867 899 870 863 867 859 849 869 870 870 875 875 873 875